Regional Weather Roundup
Issued by NWS

Home | Current Version | Previous Version | Text Only | Print | Product List | Glossary Off
Versions: 1 2 3 4 5 6 7 8 9 10 11 12 13 14 15 16 17 18 19 20 21 22 23 24 25 26 27 28 29 30 31 32 33 34 35 36 37 38 39 40 41 42 43 44 45 46 47 48 49 50

027
ASUS43 KLOT 112008
RWRIL

ILLINOIS REGIONAL WEATHER ROUNDUP
NATIONAL WEATHER SERVICE CHICAGO/ROMEOVILLE IL
200 PM CST MON DEC 11 2017

NOTE: "FAIR" INDICATES FEW OR NO CLOUDS BELOW 12,000 FEET WITH NO
SIGNIFICANT WEATHER AND/OR OBSTRUCTIONS TO VISIBILITY.

* THESE STATIONS ARE NOT UNDER NWS QUALITY CONTROL. THEY ALSO MAY NOT
  REPORT WEATHER SUCH AS PRECIPITATION OR FOG.

ILZ001-002-007-009-015-016-024-112100-
NORTHWEST ILLINOIS

CITY           SKY/WX    TMP DP  RH WIND       PRES   REMARKS
MOLINE         CLOUDY    44  27  51 NW20      29.67R
STERLING*      CLOUDY    43  28  55 N6        29.67R
SAVANNA*       CLOUDY    35  29  78 N8        29.70R WCI  29
$$

ILZ003-004-008-010-011-017-018-112100-
NORTH CENTRAL ILLINOIS

CITY           SKY/WX    TMP DP  RH WIND       PRES   REMARKS
ROCKFORD       CLOUDY    37  26  64 E3        29.69S
FREEPORT*      LGT SNOW  32  29  90 CALM      29.70S VSB 1
ROCHELLE*      CLOUDY    38  28  65 CALM      29.67R
DE KALB*       CLOUDY    37  27  68 E7        29.66F WCI  31
PERU*          CLOUDY    43  26  52 W12       29.65R
$$

ILZ005-006-012>014-019>023-112100-
NORTHEAST ILLINOIS

CITY           SKY/WX    TMP DP  RH WIND       PRES   REMARKS
CHICAGO-OHARE  CLOUDY    38  25  59 SE7       29.67F WCI  33
CHICAGO-MIDWAY CLOUDY    39  26  59 SE8       29.67F WCI  33
AURORA         CLOUDY    39  27  62 E7        29.66F WCI  34
LANSING*       CLOUDY    38  28  69 SE9       29.68F WCI  31
WAUKEGAN       CLOUDY    33  25  72 S6        29.68F WCI  28
DUPAGE AIRPORT CLOUDY    38  27  64 SE6       29.66F WCI  33
KANKAKEE*      MOSUNNY   44  28  53 SE10      29.65F
WHEELING       CLOUDY    37  27  67 SE6       29.69F WCI  32
MORRIS*        CLOUDY    41  28  61 E7        29.64S
ROMEOVILLE*    MOSUNNY   39  27  63 SE8       29.66F WCI  33
NORTHERLY ISL    N/A     38  27  65 SE6         N/A  WCI  33
$$

LMZ740>746-112100-
SOUTHERN LAKE MICHIGAN

STATION/POSITION SKY/WX   TEMP    WIND        PRES    VSBY  WAVE
                          AIR SEA DIR/SP/G                  HT/PER
                          (F)     (DEG/KT/KT) (MB)    (MI)  (FT/S)
HARRISON CRIB              36     150/  7/ 10   N/A
BURNHAM HARBOR             38     120/  4/ 10   N/A
CALUMET HARBOR             37     160/  7/ 12 1004.6F
BURNS HARBOR               36     150/  2/ 12 1006.4F
MICHIGAN CITY              33     120/ 10/ 12   N/A
$$

ILZ025>027-034>036-040-047-049-050-058-095>099-112100-
WEST-CENTRAL ILLINOIS

CITY           SKY/WX    TMP DP  RH WIND       PRES   REMARKS
QUINCY         MOSUNNY   50  29  44 NW35G49   29.75R
GALESBURG*     PTSUNNY   45  28  50 W26G38    29.68R
MACOMB*        SUNNY     48  26  43 W38G44    29.72R
JACKSONVILLE*  SUNNY     50  23  34 W28G36    29.71R
PITTSFIELD*    SUNNY     53  28  38 W24G36    29.75R
$$

ILZ028>032-037-038-041>044-048-051>054-059>061-112100-
CENTRAL ILLINOIS

CITY           SKY/WX    TMP DP  RH WIND       PRES   REMARKS
PONTIAC        MOSUNNY   48  27  44 SW10      29.62F
BLOOMINGTON    SUNNY     48  25  40 W24G31    29.61F
DECATUR        MOSUNNY   51  24  34 W17G26    29.64
PEORIA         MOSUNNY   47  25  42 W20G30    29.65S
LACON*         CLOUDY    44  26  49 W10G16    29.64R
LINCOLN*       SUNNY     52  27  38 W14G22    29.65S
SPRINGFIELD    SUNNY     53  25  33 W26G33    29.68S
TAYLORVILLE    CLOUDY    52  24  34 W24       29.67F
$$

ILZ033-039-045-046-055>057-062-063-112100-
EAST-CENTRAL ILLINOIS

CITY           SKY/WX    TMP DP  RH WIND       PRES   REMARKS
CHAMPAIGN      CLOUDY    53  28  38 SW22G30   29.64F
DANVILLE*      CLOUDY    46  28  50 S10       29.64F
RANTOUL*       CLOUDY    52  31  44 S15       29.63F
MATTOON        CLOUDY    52  30  43 SW9       29.66F
PARIS*         CLOUDY    48  31  51 S18       29.67F
$$

ILZ079-100>102-112100-
SOUTHWEST ILLINOIS

CITY           SKY/WX    TMP DP  RH WIND       PRES   REMARKS
ALTON          PTSUNNY   54  25  32 W21G37    29.75S
BELLEVILLE     CLOUDY    58  21  24 NW20G29   29.75R
CAHOKIA*       CLOUDY    57  19  22 W16G36    29.77R
$$

ILZ064>066-069>071-074>076-080>082-084>086-088>090-092>094-112100-
SOUTH-CENTRAL ILLINOIS

CITY           SKY/WX    TMP DP  RH WIND       PRES   REMARKS
CARBONDALE     SUNNY     58  29  33 SW20G26   29.77F
CAIRO*         PTSUNNY   60  33  36 S17G29    29.81F
EFFINGHAM*     CLOUDY    56  30  37 SW18G25   29.70F
MARION         MOSUNNY   61  28  29 S18       29.77F
MT. VERNON     MOSUNNY   57  29  34 SW20G26   29.73F
CENTRALIA*     CLOUDY    58  32  38 SW12      29.72S
SALEM*         MOSUNNY   59  28  31 SW14      29.72S
METROPOLIS*    PTSUNNY   60  31  32 S10G23    29.81F
$$

ILZ067-068-072-073-078-083-087-091-112100-
SOUTHEAST ILLINOIS

CITY           SKY/WX    TMP DP  RH WIND       PRES   REMARKS
LAWRENCEVILLE  SUNNY     55  33  43 S22       29.72F
FLORA*         SUNNY     58  29  33 SW17G24   29.71F
FAIRFIELD*     SUNNY     57  30  36 SW8       29.72F
HARRISBURG*    SUNNY     59  32  36 SW22G28   29.78S
ROBINSON*      MOSUNNY   51  31  47 S16G23    29.71F
CARMI*         SUNNY     59  31  34 SW17G23   29.75F
$$

ABBREVIATIONS USED IN REMARKS
   TC - TEMPERATURE IN CELSIUS
  WCI - WIND CHILL INDEX
   HX - HEAT INDEX
  VSB - VISIBILITY
$$





USA.gov is the U.S. government's official web portal to all federal, state and local government web resources and services.